TimeICT,TemperatureF,Dew PointF,Humidity,Sea Level PressureIn,VisibilityMPH,Wind Direction,Wind SpeedMPH,Gust SpeedMPH,PrecipitationIn,Events,Conditions,WindDirDegrees,DateUTC
12:00 AM,75.2,64.4,69,29.89,-9999.0,NNE,2.3,-,N/A,,Clear,20,2013-12-04 17:00:00
12:30 AM,75.2,64.4,69,29.89,-9999.0,North,2.3,-,N/A,,Clear,10,2013-12-04 17:30:00
1:00 AM,75,67,69,29.88,5,Calm,Calm,,,,Mist,,2013-12-04 18:00:00
1:00 AM,75.2,64.4,69,29.89,-9999.0,NE,2.3,-,N/A,,Clear,40,2013-12-04 18:00:00
1:30 AM,73.4,64.4,73,29.89,5.6,NNE,2.3,-,N/A,,Unknown,30,2013-12-04 18:30:00
2:00 AM,73.4,62.6,69,29.86,5.6,North,2.3,-,N/A,,Unknown,10,2013-12-04 19:00:00
2:30 AM,73.4,62.6,69,29.86,5.6,NNW,2.3,-,N/A,,Unknown,330,2013-12-04 19:30:00
3:00 AM,71.6,62.6,73,29.86,5.6,Variable,1.2,-,N/A,,Unknown,0,2013-12-04 20:00:00
3:30 AM,73.4,62.6,69,29.86,5.6,NW,2.3,-,N/A,,Unknown,320,2013-12-04 20:30:00
4:00 AM,74,65,66,29.83,5,ENE,2.3,,,,Mist,70,2013-12-04 21:00:00
4:00 AM,73.4,62.6,69,29.86,5.6,NNW,4.6,-,N/A,,Unknown,340,2013-12-04 21:00:00
4:30 AM,71.6,62.6,73,29.86,5.6,North,5.8,-,N/A,,Unknown,350,2013-12-04 21:30:00
5:00 AM,71.6,62.6,73,29.86,5.6,Calm,Calm,-,N/A,,Unknown,0,2013-12-04 22:00:00
5:30 AM,69.8,60.8,73,29.86,-9999.0,NNW,3.5,-,N/A,,Clear,340,2013-12-04 22:30:00
6:00 AM,69.8,60.8,73,29.86,-9999.0,North,4.6,-,N/A,,Clear,350,2013-12-04 23:00:00
6:30 AM,69.8,62.6,78,29.86,5.0,North,6.9,-,N/A,,Unknown,360,2013-12-04 23:30:00
7:00 AM,72,64,71,29.86,5,NNE,2.3,,,,Mist,30,2013-12-05 00:00:00
7:00 AM,69.8,60.8,73,29.89,5.0,NNE,5.8,-,N/A,,Unknown,30,2013-12-05 00:00:00
7:30 AM,69.8,62.6,78,29.89,5.6,North,5.8,-,N/A,,Unknown,10,2013-12-05 00:30:00
8:00 AM,71.6,62.6,73,29.92,-9999.0,NNE,6.9,-,N/A,,Clear,20,2013-12-05 01:00:00
8:30 AM,75.2,64.4,69,29.92,-9999.0,NNE,4.6,-,N/A,,Clear,30,2013-12-05 01:30:00
9:00 AM,77.0,64.4,65,29.92,-9999.0,East,4.6,-,N/A,,Clear,80,2013-12-05 02:00:00
9:30 AM,78.8,64.4,61,29.92,-9999.0,ENE,6.9,-,N/A,,Clear,70,2013-12-05 02:30:00
10:00 AM,80,65,51,29.90,5,ENE,6.9,,,,Haze,60,2013-12-05 03:00:00
10:00 AM,80.6,64.4,58,29.92,-9999.0,ENE,6.9,-,N/A,,Clear,60,2013-12-05 03:00:00
10:30 AM,80.6,64.4,58,29.92,-9999.0,ENE,6.9,-,N/A,,Clear,60,2013-12-05 03:30:00
11:00 AM,82.4,64.4,54,29.89,-9999.0,NE,5.8,-,N/A,,Clear,40,2013-12-05 04:00:00
11:30 AM,82.4,64.4,54,29.89,-9999.0,NE,5.8,-,N/A,,Clear,40,2013-12-05 04:30:00
12:00 PM,84.2,64.4,51,29.89,-9999.0,East,6.9,-,N/A,,Clear,80,2013-12-05 05:00:00
12:30 PM,84.2,64.4,51,29.86,6.2,East,6.9,-,N/A,,Scattered Clouds,90,2013-12-05 05:30:00
1:00 PM,87,66,40,29.83,6,NNE,5.8,,,,Haze,20,2013-12-05 06:00:00
1:00 PM,86.0,64.4,48,29.83,6.2,East,6.9,-,N/A,,Scattered Clouds,80,2013-12-05 06:00:00
1:30 PM,86.0,64.4,48,29.83,6.2,East,6.9,-,N/A,,Scattered Clouds,90,2013-12-05 06:30:00
2:00 PM,86.0,62.6,45,29.80,6.2,East,6.9,-,N/A,,Scattered Clouds,80,2013-12-05 07:00:00
2:30 PM,87.8,62.6,43,29.80,6.2,East,6.9,-,N/A,,Scattered Clouds,80,2013-12-05 07:30:00
3:00 PM,87.8,62.6,43,29.80,6.2,ENE,8.1,-,N/A,,Scattered Clouds,60,2013-12-05 08:00:00
3:30 PM,87.8,62.6,43,29.77,6.2,East,6.9,-,N/A,,Scattered Clouds,90,2013-12-05 08:30:00
4:00 PM,87,66,41,29.77,6,NE,4.6,,,,Haze,40,2013-12-05 09:00:00
4:00 PM,86.0,62.6,45,29.77,6.2,ENE,8.1,-,N/A,,Scattered Clouds,70,2013-12-05 09:00:00
4:30 PM,86.0,62.6,45,29.77,6.2,East,8.1,-,N/A,,Scattered Clouds,80,2013-12-05 09:30:00
5:00 PM,86.0,64.4,48,29.77,6.2,East,6.9,-,N/A,,Scattered Clouds,90,2013-12-05 10:00:00
5:30 PM,84.2,64.4,51,29.80,6.2,East,5.8,-,N/A,,Partly Cloudy,80,2013-12-05 10:30:00
6:00 PM,82.4,64.4,54,29.80,-9999.0,East,3.5,-,N/A,,Clear,80,2013-12-05 11:00:00
6:30 PM,80.6,66.2,61,29.80,-9999.0,East,2.3,-,N/A,,Clear,90,2013-12-05 11:30:00
7:00 PM,82,68,53,29.81,6,ENE,2.3,,,,Haze,70,2013-12-05 12:00:00
7:00 PM,80.6,66.2,61,29.83,-9999.0,East,2.3,-,N/A,,Clear,90,2013-12-05 12:00:00
7:30 PM,80.6,68.0,65,29.83,-9999.0,East,2.3,-,N/A,,Clear,90,2013-12-05 12:30:00
8:00 PM,80.6,68.0,65,29.83,6.2,East,3.5,-,N/A,,Scattered Clouds,80,2013-12-05 13:00:00
8:30 PM,80.6,68.0,65,29.86,6.2,ENE,3.5,-,N/A,,Scattered Clouds,70,2013-12-05 13:30:00
9:00 PM,80.6,66.2,61,29.86,6.2,East,9.2,-,N/A,,Scattered Clouds,90,2013-12-05 14:00:00
9:30 PM,80.6,68.0,65,29.86,6.2,ESE,5.8,-,N/A,,Scattered Clouds,120,2013-12-05 14:30:00
10:00 PM,78,67,61,29.85,5,ENE,2.3,,,,Mist,60,2013-12-05 15:00:00
10:00 PM,78.8,68.0,69,29.86,6.2,ESE,4.6,-,N/A,,Scattered Clouds,120,2013-12-05 15:00:00
10:30 PM,78.8,68.0,69,29.86,6.2,East,3.5,-,N/A,,Scattered Clouds,100,2013-12-05 15:30:00
11:00 PM,78.8,66.2,65,29.86,6.2,East,4.6,-,N/A,,Scattered Clouds,100,2013-12-05 16:00:00
11:30 PM,78.8,68.0,69,29.86,6.2,East,3.5,-,N/A,,Scattered Clouds,100,2013-12-05 16:30:00